Year,Month,Day,Hour,Minute,Value (Times are PST for barometer in hPa)
2019,01,06,00,00,989.88
2019,01,06,00,01,989.91
2019,01,06,00,02,989.77
2019,01,06,00,03,989.88
2019,01,06,00,04,989.81
2019,01,06,00,05,989.91
2019,01,06,00,06,989.91
2019,01,06,00,07,989.88
2019,01,06,00,08,989.74
2019,01,06,00,09,989.77
2019,01,06,00,10,989.67
2019,01,06,00,11,989.71
2019,01,06,00,12,989.74
2019,01,06,00,13,989.77
2019,01,06,00,14,989.71
2019,01,06,00,15,989.67
2019,01,06,00,16,989.64
2019,01,06,00,17,989.71
2019,01,06,00,18,989.67
2019,01,06,00,19,989.67
2019,01,06,00,20,989.60
2019,01,06,00,21,989.71
2019,01,06,00,22,989.57
2019,01,06,00,23,989.57
2019,01,06,00,24,989.60
2019,01,06,00,25,989.54
2019,01,06,00,26,989.54
2019,01,06,00,27,989.54
2019,01,06,00,28,989.57
2019,01,06,00,29,989.54
2019,01,06,00,30,989.47
2019,01,06,00,31,989.50
2019,01,06,00,32,989.50
2019,01,06,00,33,989.54
2019,01,06,00,34,989.37
2019,01,06,00,35,989.40
2019,01,06,00,36,989.44
2019,01,06,00,37,989.40
2019,01,06,00,38,989.40
2019,01,06,00,39,989.37
2019,01,06,00,40,989.40
2019,01,06,00,41,989.37
2019,01,06,00,42,989.33
2019,01,06,00,43,989.33
2019,01,06,00,44,989.23
2019,01,06,00,45,989.30
2019,01,06,00,46,989.33
2019,01,06,00,47,989.27
2019,01,06,00,48,989.16
2019,01,06,00,49,989.30
2019,01,06,00,50,989.33
2019,01,06,00,51,989.27
2019,01,06,00,52,989.30
2019,01,06,00,53,989.37
2019,01,06,00,54,989.23
2019,01,06,00,55,989.30
2019,01,06,00,56,989.23
2019,01,06,00,57,989.30
2019,01,06,00,58,989.23
2019,01,06,00,59,989.27
2019,01,06,01,00,989.30
2019,01,06,01,01,989.30
2019,01,06,01,02,989.27
2019,01,06,01,03,989.20
2019,01,06,01,04,989.23
2019,01,06,01,05,989.20
2019,01,06,01,06,989.06
2019,01,06,01,07,989.10
2019,01,06,01,08,989.13
2019,01,06,01,09,989.16
2019,01,06,01,10,989.03
2019,01,06,01,11,989.23
2019,01,06,01,12,989.16
2019,01,06,01,13,989.16
2019,01,06,01,14,989.13
2019,01,06,01,15,989.13
2019,01,06,01,16,989.20
2019,01,06,01,17,989.16
2019,01,06,01,18,989.16
2019,01,06,01,19,989.23
2019,01,06,01,20,989.30
2019,01,06,01,21,989.23
2019,01,06,01,22,989.20
2019,01,06,01,23,989.16
2019,01,06,01,24,989.30
2019,01,06,01,25,989.23
2019,01,06,01,26,989.27
2019,01,06,01,27,989.27
2019,01,06,01,28,989.23
2019,01,06,01,29,989.27
2019,01,06,01,30,989.30
2019,01,06,01,31,989.30
2019,01,06,01,32,989.27
2019,01,06,01,33,989.33
2019,01,06,01,34,989.37
2019,01,06,01,35,989.37
2019,01,06,01,36,989.33
2019,01,06,01,37,989.37
2019,01,06,01,38,989.37
2019,01,06,01,39,989.33
2019,01,06,01,40,989.37
2019,01,06,01,41,989.44
2019,01,06,01,42,989.40
2019,01,06,01,43,989.37
2019,01,06,01,44,989.44
2019,01,06,01,45,989.47
2019,01,06,01,46,989.44
2019,01,06,01,47,989.50
2019,01,06,01,48,989.54
2019,01,06,01,49,989.47
2019,01,06,01,50,989.50
2019,01,06,01,51,989.50
2019,01,06,01,52,989.54
2019,01,06,01,53,989.44
2019,01,06,01,54,989.47
2019,01,06,01,55,989.50
2019,01,06,01,56,989.50
2019,01,06,01,57,989.54
2019,01,06,01,58,989.57
2019,01,06,01,59,989.47
2019,01,06,02,00,989.50
2019,01,06,02,01,989.57
2019,01,06,02,02,989.57
2019,01,06,02,03,989.54
2019,01,06,02,04,989.57
2019,01,06,02,05,989.57
2019,01,06,02,06,989.54
2019,01,06,02,07,989.54
2019,01,06,02,08,989.60
2019,01,06,02,09,989.57
2019,01,06,02,10,989.50
2019,01,06,02,11,989.60
2019,01,06,02,12,989.57
2019,01,06,02,13,989.57
2019,01,06,02,14,989.54
2019,01,06,02,15,989.60
2019,01,06,02,16,989.64
2019,01,06,02,17,989.64
2019,01,06,02,18,989.57
2019,01,06,02,19,989.64
2019,01,06,02,20,989.64
2019,01,06,02,21,989.67
2019,01,06,02,22,989.64
2019,01,06,02,23,989.60
2019,01,06,02,24,989.67
2019,01,06,02,25,989.67
2019,01,06,02,26,989.71
2019,01,06,02,27,989.77
2019,01,06,02,28,989.74
2019,01,06,02,29,989.81
2019,01,06,02,30,989.77
2019,01,06,02,31,989.71
2019,01,06,02,32,989.77
2019,01,06,02,33,989.74
2019,01,06,02,34,989.71
2019,01,06,02,35,989.77
2019,01,06,02,36,989.88
2019,01,06,02,37,989.81
2019,01,06,02,38,989.88
2019,01,06,02,39,989.91
2019,01,06,02,40,989.88
2019,01,06,02,41,989.91
2019,01,06,02,42,989.91
2019,01,06,02,43,989.94
2019,01,06,02,44,989.91
2019,01,06,02,45,989.88
2019,01,06,02,46,989.91
2019,01,06,02,47,989.88
2019,01,06,02,48,989.77
2019,01,06,02,49,989.77
2019,01,06,02,50,989.81
2019,01,06,02,51,989.74
2019,01,06,02,52,989.81
2019,01,06,02,53,989.88
2019,01,06,02,54,989.67
2019,01,06,02,55,989.88
2019,01,06,02,56,989.88
2019,01,06,02,57,989.65
2019,01,06,02,58,989.77
2019,01,06,02,59,989.67
2019,01,06,03,00,989.64
2019,01,06,03,01,989.67
2019,01,06,03,02,989.71
2019,01,06,03,03,989.64
2019,01,06,03,04,989.77
2019,01,06,03,05,989.64
2019,01,06,03,06,989.64
2019,01,06,03,07,989.60
2019,01,06,03,08,989.71
2019,01,06,03,09,989.64
2019,01,06,03,10,989.67
2019,01,06,03,11,989.54
2019,01,06,03,12,989.60
2019,01,06,03,13,989.57
2019,01,06,03,14,989.71
2019,01,06,03,15,989.64
2019,01,06,03,16,989.67
2019,01,06,03,17,989.64
2019,01,06,03,18,989.67
2019,01,06,03,19,989.67
2019,01,06,03,20,989.67
2019,01,06,03,21,989.67
2019,01,06,03,22,989.67
2019,01,06,03,23,989.67
2019,01,06,03,24,989.77
2019,01,06,03,25,989.94
2019,01,06,03,26,989.94
2019,01,06,03,27,990.01
2019,01,06,03,28,990.15
2019,01,06,03,29,990.21
2019,01,06,03,30,990.25
2019,01,06,03,31,990.38
2019,01,06,03,32,990.38
2019,01,06,03,33,990.38
2019,01,06,03,34,990.42
2019,01,06,03,35,990.38
2019,01,06,03,36,990.38
2019,01,06,03,37,990.38
2019,01,06,03,38,990.52
2019,01,06,03,39,990.38
2019,01,06,03,40,990.55
2019,01,06,03,41,990.69
2019,01,06,03,42,990.72
2019,01,06,03,43,990.76
2019,01,06,03,44,990.76
2019,01,06,03,45,990.82
2019,01,06,03,46,991.09
2019,01,06,03,47,990.86
2019,01,06,03,48,991.03
2019,01,06,03,49,990.93
2019,01,06,03,50,991.03
2019,01,06,03,51,991.25
2019,01,06,03,52,991.20
2019,01,06,03,53,991.23
2019,01,06,03,54,991.30
2019,01,06,03,55,991.33
2019,01,06,03,56,991.47
2019,01,06,03,57,991.47
2019,01,06,03,58,991.60
2019,01,06,03,59,991.57
2019,01,06,04,00,991.60
2019,01,06,04,01,991.67
2019,01,06,04,02,991.70
2019,01,06,04,03,991.74
2019,01,06,04,04,991.70
2019,01,06,04,05,991.77
2019,01,06,04,06,991.81
2019,01,06,04,07,991.74
2019,01,06,04,08,991.81
2019,01,06,04,09,991.84
2019,01,06,04,10,991.84
2019,01,06,04,11,991.81
2019,01,06,04,12,991.74
2019,01,06,04,13,991.84
2019,01,06,04,14,991.84
2019,01,06,04,15,991.94
2019,01,06,04,16,991.84
2019,01,06,04,17,991.84
2019,01,06,04,18,991.94
2019,01,06,04,19,992.11
2019,01,06,04,20,992.08
2019,01,06,04,21,992.11
2019,01,06,04,22,992.21
2019,01,06,04,23,992.35
2019,01,06,04,24,992.45
2019,01,06,04,25,992.45
2019,01,06,04,26,992.35
2019,01,06,04,27,992.45
2019,01,06,04,28,992.45
2019,01,06,04,29,992.55
2019,01,06,04,30,992.52
2019,01,06,04,31,992.62
2019,01,06,04,32,992.62
2019,01,06,04,33,992.82
2019,01,06,04,34,992.69
2019,01,06,04,35,992.75
2019,01,06,04,36,992.86
2019,01,06,04,37,992.89
2019,01,06,04,38,992.86
2019,01,06,04,39,992.99
2019,01,06,04,40,993.03
2019,01,06,04,41,993.13
2019,01,06,04,42,993.19
2019,01,06,04,43,993.23
2019,01,06,04,44,993.30
2019,01,06,04,45,993.26
2019,01,06,04,46,993.36
2019,01,06,04,47,993.33
2019,01,06,04,48,993.33
2019,01,06,04,49,993.60
2019,01,06,04,50,993.50
2019,01,06,04,51,993.77
2019,01,06,04,52,993.74
2019,01,06,04,53,993.87
2019,01,06,04,54,993.97
2019,01,06,04,55,993.95
2019,01,06,04,56,994.11
2019,01,06,04,57,994.21
2019,01,06,04,58,994.31
2019,01,06,04,59,994.25
2019,01,06,05,00,994.41
2019,01,06,05,01,994.45
2019,01,06,05,02,994.48
2019,01,06,05,03,994.41
2019,01,06,05,04,994.48
2019,01,06,05,05,994.58
2019,01,06,05,06,994.58
2019,01,06,05,07,994.75
2019,01,06,05,08,994.72
2019,01,06,05,09,994.73
2019,01,06,05,10,994.92
2019,01,06,05,11,994.92
2019,01,06,05,12,994.92
2019,01,06,05,13,994.96
2019,01,06,05,14,995.06
2019,01,06,05,15,995.09
2019,01,06,05,16,995.09
2019,01,06,05,17,995.16
2019,01,06,05,18,995.19
2019,01,06,05,19,995.26
2019,01,06,05,20,995.33
2019,01,06,05,21,995.36
2019,01,06,05,22,995.46
2019,01,06,05,23,995.53
2019,01,06,05,24,995.53
2019,01,06,05,25,995.56
2019,01,06,05,26,995.63
2019,01,06,05,27,995.67
2019,01,06,05,28,995.70
2019,01,06,05,29,995.73
2019,01,06,05,30,995.73
2019,01,06,05,31,995.87
2019,01,06,05,32,995.94
2019,01,06,05,33,995.94
2019,01,06,05,34,995.90
2019,01,06,05,35,995.94
2019,01,06,05,36,996.04
2019,01,06,05,37,996.07
2019,01,06,05,38,996.24
2019,01,06,05,39,996.18
2019,01,06,05,40,996.41
2019,01,06,05,41,996.34
2019,01,06,05,42,996.45
2019,01,06,05,43,996.41
2019,01,06,05,44,996.55
2019,01,06,05,45,996.55
2019,01,06,05,46,996.55
2019,01,06,05,47,996.72
2019,01,06,05,48,996.75
2019,01,06,05,49,996.92
2019,01,06,05,50,996.82
2019,01,06,05,51,996.92
2019,01,06,05,52,996.99
2019,01,06,05,53,996.95
2019,01,06,05,54,997.05
2019,01,06,05,55,997.12
2019,01,06,05,56,997.09
2019,01,06,05,57,997.16
2019,01,06,05,58,997.19
2019,01,06,05,59,997.22
2019,01,06,06,00,997.22
2019,01,06,06,01,997.34
2019,01,06,06,02,997.50
2019,01,06,06,03,997.36
2019,01,06,06,04,997.39
2019,01,06,06,05,997.39
2019,01,06,06,06,997.50
2019,01,06,06,07,997.46
2019,01,06,06,08,997.46
2019,01,06,06,09,997.43
2019,01,06,06,10,997.56
2019,01,06,06,11,997.51
2019,01,06,06,12,997.63
2019,01,06,06,13,997.63
2019,01,06,06,14,997.77
2019,01,06,06,15,997.73
2019,01,06,06,16,997.70
2019,01,06,06,17,997.77
2019,01,06,06,18,997.81
2019,01,06,06,19,997.97
2019,01,06,06,20,997.90
2019,01,06,06,21,997.94
2019,01,06,06,22,998.00
2019,01,06,06,23,998.10
2019,01,06,06,24,998.07
2019,01,06,06,25,998.10
2019,01,06,06,26,998.14
2019,01,06,06,27,998.17
2019,01,06,06,28,998.21
2019,01,06,06,29,998.24
2019,01,06,06,30,998.27
2019,01,06,06,31,998.31
2019,01,06,06,32,998.31
2019,01,06,06,33,998.31
2019,01,06,06,34,998.31
2019,01,06,06,35,998.44
2019,01,06,06,36,998.44
2019,01,06,06,37,998.48
2019,01,06,06,38,998.44
2019,01,06,06,39,998.54
2019,01,06,06,40,998.65
2019,01,06,06,41,998.61
2019,01,06,06,42,998.68
2019,01,06,06,43,998.71
2019,01,06,06,44,998.75
2019,01,06,06,45,998.78
2019,01,06,06,46,998.85
2019,01,06,06,47,998.88
2019,01,06,06,48,998.92
2019,01,06,06,49,998.95
2019,01,06,06,50,998.99
2019,01,06,06,51,999.12
2019,01,06,06,52,999.15
2019,01,06,06,53,999.32
2019,01,06,06,54,999.36
2019,01,06,06,55,999.32
2019,01,06,06,56,999.46
2019,01,06,06,57,999.49
2019,01,06,06,58,999.46
2019,01,06,06,59,999.43
2019,01,06,07,00,999.49
2019,01,06,07,01,999.56
2019,01,06,07,02,999.33
2019,01,06,07,03,999.53
2019,01,06,07,04,999.46
2019,01,06,07,05,999.46
2019,01,06,07,06,999.56
2019,01,06,07,07,999.56
2019,01,06,07,08,999.56
2019,01,06,07,09,999.59
2019,01,06,07,10,999.59
2019,01,06,07,11,999.66
2019,01,06,07,12,999.66
2019,01,06,07,13,999.60
2019,01,06,07,14,999.76
2019,01,06,07,15,999.76
2019,01,06,07,16,999.90
2019,01,06,07,17,999.80
2019,01,06,07,18,999.87
2019,01,06,07,19,1000.00
2019,01,06,07,20,999.93
2019,01,06,07,21,1000.00
2019,01,06,07,22,1000.03
2019,01,06,07,23,1000.00
2019,01,06,07,24,1000.03
2019,01,06,07,25,1000.00
2019,01,06,07,26,1000.17
2019,01,06,07,27,1000.14
2019,01,06,07,28,1000.14
2019,01,06,07,29,1000.20
2019,01,06,07,30,1000.24
2019,01,06,07,31,1000.34
2019,01,06,07,32,1000.27
2019,01,06,07,33,1000.34
2019,01,06,07,34,1000.37
2019,01,06,07,35,1000.41
2019,01,06,07,36,1000.34
2019,01,06,07,37,1000.34
2019,01,06,07,38,1000.41
2019,01,06,07,39,1000.34
2019,01,06,07,40,1000.41
2019,01,06,07,41,1000.41
2019,01,06,07,42,1000.37
2019,01,06,07,43,1000.44
2019,01,06,07,44,1000.41
2019,01,06,07,45,1000.44
2019,01,06,07,46,1000.44
2019,01,06,07,47,1000.37
2019,01,06,07,48,1000.34
2019,01,06,07,49,1000.37
2019,01,06,07,50,1000.31
2019,01,06,07,51,1000.34
2019,01,06,07,52,1000.44
2019,01,06,07,53,1000.41
2019,01,06,07,54,1000.41
2019,01,06,07,55,1000.37
2019,01,06,07,56,1000.37
2019,01,06,07,57,1000.31
2019,01,06,07,58,1000.41
2019,01,06,07,59,1000.34
2019,01,06,08,00,1000.37
2019,01,06,08,01,1000.41
2019,01,06,08,02,1000.54
2019,01,06,08,03,1000.61
2019,01,06,08,04,1000.51
2019,01,06,08,05,1000.51
2019,01,06,08,06,1000.61
2019,01,06,08,07,1000.58
2019,01,06,08,08,1000.68
2019,01,06,08,09,1000.65
2019,01,06,08,10,1000.78
2019,01,06,08,11,1000.81
2019,01,06,08,12,1000.88
2019,01,06,08,13,1000.81
2019,01,06,08,14,1000.92
2019,01,06,08,15,1000.92
2019,01,06,08,16,1000.95
2019,01,06,08,17,1000.95
2019,01,06,08,18,1000.88
2019,01,06,08,19,1001.05
2019,01,06,08,20,1001.12
2019,01,06,08,21,1001.12
2019,01,06,08,22,1001.19
2019,01,06,08,23,1001.12
2019,01,06,08,24,1001.12
2019,01,06,08,25,1001.22
2019,01,06,08,26,1001.22
2019,01,06,08,27,1001.32
2019,01,06,08,28,1001.29
2019,01,06,08,29,1001.36
2019,01,06,08,30,1001.46
2019,01,06,08,31,1001.46
2019,01,06,08,32,1001.42
2019,01,06,08,33,1001.49
2019,01,06,08,34,1001.56
2019,01,06,08,35,1001.46
2019,01,06,08,36,1001.59
2019,01,06,08,37,1001.52
2019,01,06,08,38,1001.52
2019,01,06,08,39,1001.59
2019,01,06,08,40,1001.66
2019,01,06,08,41,1001.83
2019,01,06,08,42,1001.73
2019,01,06,08,43,1001.73
2019,01,06,08,44,1001.80
2019,01,06,08,45,1001.73
2019,01,06,08,46,1001.80
2019,01,06,08,47,1001.83
2019,01,06,08,48,1001.93
2019,01,06,08,49,1001.93
2019,01,06,08,50,1001.86
2019,01,06,08,51,1001.86
2019,01,06,08,52,1001.86
2019,01,06,08,53,1001.90
2019,01,06,08,54,1001.86
2019,01,06,08,55,1001.83
2019,01,06,08,56,1001.83
2019,01,06,08,57,1001.83
2019,01,06,08,58,1001.83
2019,01,06,08,59,1001.83
2019,01,06,09,00,1001.83
2019,01,06,09,01,1001.90
2019,01,06,09,02,1001.83
2019,01,06,09,03,1001.90
2019,01,06,09,04,1001.93
2019,01,06,09,05,1001.93
2019,01,06,09,06,1002.00
2019,01,06,09,07,1002.03
2019,01,06,09,08,1001.93
2019,01,06,09,09,1002.00
2019,01,06,09,10,1002.03
2019,01,06,09,11,1002.00
2019,01,06,09,12,1002.00
2019,01,06,09,13,1001.93
2019,01,06,09,14,1002.07
2019,01,06,09,15,1002.00
2019,01,06,09,16,1002.10
2019,01,06,09,17,1001.97
2019,01,06,09,18,1002.07
2019,01,06,09,19,1002.10
2019,01,06,09,20,1002.00
2019,01,06,09,21,1001.97
2019,01,06,09,22,1002.10
2019,01,06,09,23,1002.17
2019,01,06,09,24,1002.10
2019,01,06,09,25,1002.10
2019,01,06,09,26,1002.10
2019,01,06,09,27,1002.10
2019,01,06,09,28,1002.07
2019,01,06,09,29,1002.10
2019,01,06,09,30,1002.17
2019,01,06,09,31,1002.07
2019,01,06,09,32,1002.07
2019,01,06,09,33,1002.03
2019,01,06,09,34,1002.03
2019,01,06,09,35,1001.93
2019,01,06,09,36,1001.97
2019,01,06,09,37,1001.93
2019,01,06,09,38,1001.97
2019,01,06,09,39,1001.93
2019,01,06,09,40,1001.90
2019,01,06,09,41,1001.90
2019,01,06,09,42,1001.93
2019,01,06,09,43,1001.90
2019,01,06,09,44,1001.93
2019,01,06,09,45,1001.86
2019,01,06,09,46,1001.90
2019,01,06,09,47,1001.90
2019,01,06,09,48,1001.97
2019,01,06,09,49,1001.93
2019,01,06,09,50,1001.83
2019,01,06,09,51,1001.97
2019,01,06,09,52,1001.97
2019,01,06,09,53,1001.93
2019,01,06,09,54,1001.97
2019,01,06,09,55,1002.00
2019,01,06,09,56,1001.97
2019,01,06,09,57,1001.97
2019,01,06,09,58,1001.97
2019,01,06,09,59,1001.93
2019,01,06,10,00,1002.00
2019,01,06,10,01,1002.00
2019,01,06,10,02,1002.03
2019,01,06,10,03,1002.03
2019,01,06,10,04,1002.00
2019,01,06,10,05,1002.03
2019,01,06,10,06,1002.07
2019,01,06,10,07,1002.07
2019,01,06,10,08,1002.00
2019,01,06,10,09,1002.10
2019,01,06,10,10,1002.10
2019,01,06,10,11,1002.13
2019,01,06,10,12,1002.13
2019,01,06,10,13,1002.24
2019,01,06,10,14,1002.17
2019,01,06,10,15,1002.34
2019,01,06,10,16,1002.34
2019,01,06,10,17,1002.27
2019,01,06,10,18,1002.24
2019,01,06,10,19,1002.34
2019,01,06,10,20,1002.37
2019,01,06,10,21,1002.27
2019,01,06,10,22,1002.30
2019,01,06,10,23,1002.30
2019,01,06,10,24,1002.34
2019,01,06,10,25,1002.34
2019,01,06,10,26,1002.34
2019,01,06,10,27,1002.34
2019,01,06,10,28,1002.37
2019,01,06,10,29,1002.34
2019,01,06,10,30,1002.34
2019,01,06,10,31,1002.34
2019,01,06,10,32,1002.37
2019,01,06,10,33,1002.41
2019,01,06,10,34,1002.30
2019,01,06,10,35,1002.41
2019,01,06,10,36,1002.41
2019,01,06,10,37,1002.34
2019,01,06,10,38,1002.34
2019,01,06,10,39,1002.34
2019,01,06,10,40,1002.41
2019,01,06,10,41,1002.37
2019,01,06,10,42,1002.34
2019,01,06,10,43,1002.34
2019,01,06,10,44,1002.37
2019,01,06,10,45,1002.41
2019,01,06,10,46,1002.44
2019,01,06,10,47,1002.41
2019,01,06,10,48,1002.47
2019,01,06,10,49,1002.44
2019,01,06,10,50,1002.42
2019,01,06,10,51,1002.57
2019,01,06,10,52,1002.47
2019,01,06,10,53,1002.44
2019,01,06,10,54,1002.54
2019,01,06,10,55,1002.54
2019,01,06,10,56,1002.51
2019,01,06,10,57,1002.51
2019,01,06,10,58,1002.51
2019,01,06,10,59,1002.57
2019,01,06,11,00,1002.57
2019,01,06,11,01,1002.64
2019,01,06,11,02,1002.64
2019,01,06,11,03,1002.68
2019,01,06,11,04,1002.64
2019,01,06,11,05,1002.71
2019,01,06,11,06,1002.74
2019,01,06,11,07,1002.78
2019,01,06,11,08,1002.78
2019,01,06,11,09,1002.74
2019,01,06,11,10,1002.85
2019,01,06,11,11,1002.71
2019,01,06,11,12,1002.78
2019,01,06,11,13,1002.78
2019,01,06,11,14,1002.71
2019,01,06,11,15,1002.85
2019,01,06,11,16,1002.74
2019,01,06,11,17,1002.78
2019,01,06,11,18,1002.74
2019,01,06,11,19,1002.78
2019,01,06,11,20,1002.78
2019,01,06,11,21,1002.78
2019,01,06,11,22,1002.71
2019,01,06,11,23,1002.71
2019,01,06,11,24,1002.68
2019,01,06,11,25,1002.68
2019,01,06,11,26,1002.71
2019,01,06,11,27,1002.64
2019,01,06,11,28,1002.64
2019,01,06,11,29,1002.61
2019,01,06,11,30,1002.61
2019,01,06,11,31,1002.57
2019,01,06,11,32,1002.57
2019,01,06,11,33,1002.54
2019,01,06,11,34,1002.57
2019,01,06,11,35,1002.61
2019,01,06,11,36,1002.68
2019,01,06,11,37,1002.54
2019,01,06,11,38,1002.61
2019,01,06,11,39,1002.57
2019,01,06,11,40,1002.54
2019,01,06,11,41,1002.57
2019,01,06,11,42,1002.57
2019,01,06,11,43,1002.61
2019,01,06,11,44,1002.61
2019,01,06,11,45,1002.57
2019,01,06,11,46,1002.64
2019,01,06,11,47,1002.71
2019,01,06,11,48,1002.71
2019,01,06,11,49,1002.68
2019,01,06,11,50,1002.64
2019,01,06,11,51,1002.74
2019,01,06,11,52,1002.78
2019,01,06,11,53,1002.71
2019,01,06,11,54,1002.71
2019,01,06,11,55,1002.74
2019,01,06,11,56,1002.85
2019,01,06,11,57,1002.74
2019,01,06,11,58,1002.71
2019,01,06,11,59,1002.85
2019,01,06,12,00,1002.88
2019,01,06,12,01,1002.91
2019,01,06,12,02,1002.95
2019,01,06,12,03,1002.91
2019,01,06,12,04,1002.88
2019,01,06,12,05,1002.91
2019,01,06,12,06,1002.95
2019,01,06,12,07,1002.88
2019,01,06,12,08,1002.85
2019,01,06,12,09,1002.85
2019,01,06,12,10,1002.71
2019,01,06,12,11,1002.71
2019,01,06,12,12,1002.78
2019,01,06,12,13,1002.71
2019,01,06,12,14,1002.88
2019,01,06,12,15,1002.85
2019,01,06,12,16,1002.71
2019,01,06,12,17,1002.85
2019,01,06,12,18,1002.85
2019,01,06,12,19,1002.71
2019,01,06,12,20,1002.64
2019,01,06,12,21,1002.71
2019,01,06,12,22,1002.74
2019,01,06,12,23,1002.68
2019,01,06,12,24,1002.64
2019,01,06,12,25,1002.68
2019,01,06,12,26,1002.78
2019,01,06,12,27,1002.78
2019,01,06,12,28,1002.85
2019,01,06,12,29,1002.74
2019,01,06,12,30,1002.85
2019,01,06,12,31,1002.71
2019,01,06,12,32,1002.74
2019,01,06,12,33,1002.74
2019,01,06,12,34,1002.74
2019,01,06,12,35,1002.71
2019,01,06,12,36,1002.78
2019,01,06,12,37,1002.71
2019,01,06,12,38,1002.74
2019,01,06,12,39,1002.85
2019,01,06,12,40,1002.74
2019,01,06,12,41,1002.64
2019,01,06,12,42,1002.78
2019,01,06,12,43,1002.71
2019,01,06,12,44,1002.78
2019,01,06,12,45,1002.78
2019,01,06,12,46,1002.88
2019,01,06,12,47,1002.95
2019,01,06,12,48,1002.95
2019,01,06,12,49,1002.95
2019,01,06,12,50,1002.95
2019,01,06,12,51,1002.98
2019,01,06,12,52,1002.91
2019,01,06,12,53,1002.95
2019,01,06,12,54,1002.95
2019,01,06,12,55,1002.88
2019,01,06,12,56,1002.91
2019,01,06,12,57,1002.91
2019,01,06,12,58,1002.91
2019,01,06,12,59,1002.91
2019,01,06,13,00,1002.91
2019,01,06,13,01,1002.91
2019,01,06,13,02,1002.88
2019,01,06,13,03,1002.91
2019,01,06,13,04,1002.95
2019,01,06,13,05,1002.98
2019,01,06,13,06,1002.95
2019,01,06,13,07,1002.88
2019,01,06,13,08,1002.74
2019,01,06,13,09,1002.88
2019,01,06,13,10,1002.78
2019,01,06,13,11,1002.85
2019,01,06,13,12,1002.98
2019,01,06,13,13,1002.95
2019,01,06,13,14,1002.88
2019,01,06,13,15,1002.91
2019,01,06,13,16,1002.91
2019,01,06,13,17,1002.78
2019,01,06,13,18,1002.91
2019,01,06,13,19,1002.95
2019,01,06,13,20,1002.85
2019,01,06,13,21,1002.88
2019,01,06,13,22,1002.91
2019,01,06,13,23,1002.95
2019,01,06,13,24,1002.98
2019,01,06,13,25,1002.91
2019,01,06,13,26,1002.85
2019,01,06,13,27,1002.91
2019,01,06,13,28,1002.91
2019,01,06,13,29,1002.91
2019,01,06,13,30,1002.88
2019,01,06,13,31,1002.85
2019,01,06,13,32,1002.91
2019,01,06,13,33,1003.01
2019,01,06,13,34,1002.88
2019,01,06,13,35,1002.98
2019,01,06,13,36,1002.95
2019,01,06,13,37,1002.91
2019,01,06,13,38,1002.88
2019,01,06,13,39,1002.78
2019,01,06,13,40,1002.95
2019,01,06,13,41,1002.91
2019,01,06,13,42,1002.95
2019,01,06,13,43,1003.05
2019,01,06,13,44,1003.01
2019,01,06,13,45,1002.95
2019,01,06,13,46,1002.91
2019,01,06,13,47,1002.91
2019,01,06,13,48,1003.01
2019,01,06,13,49,1003.01
2019,01,06,13,50,1002.98
2019,01,06,13,51,1002.98
2019,01,06,13,52,1002.95
2019,01,06,13,53,1002.95
2019,01,06,13,54,1003.01
2019,01,06,13,55,1003.05
2019,01,06,13,56,1003.05
2019,01,06,13,57,1002.98
2019,01,06,13,58,1002.98
2019,01,06,13,59,1002.98
2019,01,06,14,00,1002.98
2019,01,06,14,01,1002.95
2019,01,06,14,02,1003.01
2019,01,06,14,03,1002.95
2019,01,06,14,04,1002.91
2019,01,06,14,05,1002.91
2019,01,06,14,06,1002.98
2019,01,06,14,07,1003.01
2019,01,06,14,08,1002.98
2019,01,06,14,09,1002.98
2019,01,06,14,10,1002.98
2019,01,06,14,11,1002.95
2019,01,06,14,12,1002.98
2019,01,06,14,13,1003.08
2019,01,06,14,14,1003.08
2019,01,06,14,15,1003.08
2019,01,06,14,16,1003.08
2019,01,06,14,17,1003.08
2019,01,06,14,18,1003.08
2019,01,06,14,19,1003.08
2019,01,06,14,20,1003.12
2019,01,06,14,21,1003.15
2019,01,06,14,22,1003.15
2019,01,06,14,23,1003.18
2019,01,06,14,24,1003.15
2019,01,06,14,25,1003.22
2019,01,06,14,26,1003.15
2019,01,06,14,27,1003.15
2019,01,06,14,28,1003.18
2019,01,06,14,29,1003.15
2019,01,06,14,30,1003.22
2019,01,06,14,31,1003.12
2019,01,06,14,32,1003.25
2019,01,06,14,33,1003.29
2019,01,06,14,34,1003.18
2019,01,06,14,35,1003.22
2019,01,06,14,36,1003.29
2019,01,06,14,37,1003.25
2019,01,06,14,38,1003.18
2019,01,06,14,39,1003.18
2019,01,06,14,40,1003.18
2019,01,06,14,41,1003.25
2019,01,06,14,42,1003.22
2019,01,06,14,43,1003.18
2019,01,06,14,44,1003.15
2019,01,06,14,45,1003.12
2019,01,06,14,46,1003.18
2019,01,06,14,47,1003.12
2019,01,06,14,48,1003.18
2019,01,06,14,49,1003.22
2019,01,06,14,50,1003.18
2019,01,06,14,51,1003.22
2019,01,06,14,52,1003.22
2019,01,06,14,53,1003.25
2019,01,06,14,54,1003.15
2019,01,06,14,55,1003.25
2019,01,06,14,56,1003.18
2019,01,06,14,57,1003.22
2019,01,06,14,58,1003.29
2019,01,06,14,59,1003.22
2019,01,06,15,00,1003.25
2019,01,06,15,01,1003.25
2019,01,06,15,02,1003.25
2019,01,06,15,03,1003.25
2019,01,06,15,04,1003.25
2019,01,06,15,05,1003.29
2019,01,06,15,06,1003.29
2019,01,06,15,07,1003.32
2019,01,06,15,08,1003.32
2019,01,06,15,09,1003.32
2019,01,06,15,10,1003.29
2019,01,06,15,11,1003.42
2019,01,06,15,12,1003.35
2019,01,06,15,13,1003.29
2019,01,06,15,14,1003.25
2019,01,06,15,15,1003.35
2019,01,06,15,16,1003.35
2019,01,06,15,17,1003.39
2019,01,06,15,18,1003.29
2019,01,06,15,19,1003.25
2019,01,06,15,20,1003.29
2019,01,06,15,21,1003.35
2019,01,06,15,22,1003.32
2019,01,06,15,23,1003.35
2019,01,06,15,24,1003.29
2019,01,06,15,25,1003.35
2019,01,06,15,26,1003.35
2019,01,06,15,27,1003.35
2019,01,06,15,28,1003.32
2019,01,06,15,29,1003.32
2019,01,06,15,30,1003.35
2019,01,06,15,31,1003.42
2019,01,06,15,32,1003.32
2019,01,06,15,33,1003.32
2019,01,06,15,34,1003.35
2019,01,06,15,35,1003.29
2019,01,06,15,36,1003.32
2019,01,06,15,37,1003.29
2019,01,06,15,38,1003.29
2019,01,06,15,39,1003.32
2019,01,06,15,40,1003.32
2019,01,06,15,41,1003.42
2019,01,06,15,42,1003.35
2019,01,06,15,43,1003.35
2019,01,06,15,44,1003.32
2019,01,06,15,45,1003.35
2019,01,06,15,46,1003.29
2019,01,06,15,47,1003.35
2019,01,06,15,48,1003.39
2019,01,06,15,49,1003.39
2019,01,06,15,50,1003.46
2019,01,06,15,51,1003.35
2019,01,06,15,52,1003.35
2019,01,06,15,53,1003.35
2019,01,06,15,54,1003.39
2019,01,06,15,55,1003.39
2019,01,06,15,56,1003.35
2019,01,06,15,57,1003.39
2019,01,06,15,58,1003.42
2019,01,06,15,59,1003.42
2019,01,06,16,00,1003.49
2019,01,06,16,01,1003.39
2019,01,06,16,02,1003.39
2019,01,06,16,03,1003.42
2019,01,06,16,04,1003.32
2019,01,06,16,05,1003.35
2019,01,06,16,06,1003.32
2019,01,06,16,07,1003.35
2019,01,06,16,08,1003.35
2019,01,06,16,09,1003.35
2019,01,06,16,10,1003.29
2019,01,06,16,11,1003.35
2019,01,06,16,12,1003.32
2019,01,06,16,13,1003.32